Content
SEND FEEDBACK

Daily
Averages
Monthly
Summary
United States of America

SOUTH LAKE TAHOE, CALIFORNIA


Home > North America > United States > California
Elevation: 6263 feet     Latitude: 38 53N     Longitude: 119 59W

WEATHER
 
SELECT A DAY
Number of Records: 172,738;   Date Range: 1/1/95 - 4/18/14
 
SHARE

PRINT THIS DATA

[ ← Previous Day ]
WEATHER ALMANAC - MAY 7, 2013
[ Next Day → ]
[ °C ]   °F
Weather ElementAverageHighLow
Temperature41.6 °F48.2 °F (3:18 pm)37.4 °F (7:26 am)
Dewpoint35.9 °F39 °F (5:53 pm)33.1 °F (7:53 am)
Humidity80.7 %89 % (1:53 am)62 % (3:18 pm)
Barometer30.00 in30.05 in (8:14 pm)29.93 in (4:53 am)
Wind Speed0.9 mph6.9 mph (5:25 pm)
Weather ElementAverage
Visibility7.4 mi
Wind DirectionNNE (31.4 °)

Weather ElementTotal
Precipitation0.56 in
Heating Degree Days22.2 (Base 65)
Averaged from 57 records on May 7, 2013
WEATHER CONDITIONS BREAKOUT
WIND DIRECTION BREAKOUT
WEATHER BY HOUR - MAY 7, 2013
[ °C ]   °F
Local TimeTemperatureDewpointHumidityBarometerVisibilityWind DirectionWind SpeedGust SpeedPrecipitationEventsConditions
12:46 AM39.2 °F35.6 °F87 %30.00 in6.0 miSouth (170°)3.5 mphOvercast
1:24 AM39.2 °F35.6 °F87 %30.00 in7.0 miCalm0.01 inRainLight Rain
1:35 AM39.2 °F35.6 °F87 %30.00 in7.0 miCalm0.01 inRainLight Rain
1:53 AM39.0 °F36.0 °F89 %29.94 in9.0 miCalm0.01 inOvercast
2:04 AM39.2 °F35.6 °F87 %29.99 in8.0 miCalmOvercast
2:07 AM39.2 °F35.6 °F87 %29.99 in7.0 miCalmOvercast
2:53 AM39.0 °F36.0 °F89 %29.94 in7.0 miCalm0.00 inOvercast
3:51 AM39.2 °F35.6 °F87 %29.99 in9.0 miCalm0.00 inRainLight Rain
3:53 AM39.0 °F35.1 °F86 %29.94 in9.0 miCalm0.00 inRainLight Rain
4:24 AM39.2 °F35.6 °F87 %29.98 in6.0 miCalm0.00 inOvercast
4:28 AM39.2 °F35.6 °F87 %29.98 in6.0 miCalm0.00 inOvercast
4:39 AM39.2 °F35.6 °F87 %29.98 in7.0 miCalm0.00 inOvercast
4:46 AM39.2 °F35.6 °F87 %29.98 in7.0 miCalm0.00 inOvercast
4:53 AM39.0 °F36.0 °F89 %29.93 in7.0 miCalm0.00 inOvercast
5:50 AM39.2 °F35.6 °F87 %29.99 in4.0 miCalm0.01 inRainLight Rain
5:53 AM39.0 °F35.1 °F86 %29.93 in4.0 miCalm0.01 inRainLight Rain
5:59 AM39.2 °F35.6 °F87 %29.99 in5.0 miCalm0.00 inRainLight Rain
6:05 AM39.2 °F35.6 °F87 %29.99 in4.0 miCalm0.00 inRainLight Rain
6:53 AM37.9 °F34.0 °F86 %29.95 in3.0 miCalm0.03 inRainLight Rain
7:26 AM37.4 °F33.8 °F87 %30.01 in5.0 miCalm0.02 inRainLight Rain
7:43 AM37.4 °F33.8 °F87 %30.01 in4.0 miCalm0.03 inRainLight Rain
7:53 AM37.9 °F33.1 °F83 %29.96 in5.0 miCalm0.03 inRainLight Rain
8:08 AM37.4 °F33.8 °F87 %30.01 in4.0 miCalm0.01 inRainLight Rain
8:17 AM37.4 °F33.8 °F87 %30.01 in6.0 miCalm0.02 inRainLight Rain
8:53 AM39.0 °F34.0 °F82 %29.98 in8.0 miCalm0.03 inRainLight Rain
9:13 AM39.2 °F33.8 °F81 %30.02 in4.0 miCalm0.02 inRainLight Rain
9:26 AM39.2 °F33.8 °F81 %30.03 in5.0 miCalm0.03 inRainLight Rain
9:53 AM39.9 °F35.1 °F83 %29.98 in8.0 miCalm0.04 inRainLight Rain
10:27 AM41.0 °F35.6 °F81 %30.03 in10.0 miCalm0.00 inRainLight Rain
10:53 AM42.1 °F36.0 °F79 %29.98 in10.0 miCalm0.00 inRainLight Rain
11:27 AM42.8 °F35.6 °F76 %30.04 in9.0 miCalm0.00 inRainLight Rain
11:37 AM44.6 °F37.4 °F76 %30.04 in9.0 miENE (60°)3.5 mph0.00 inRainLight Rain
11:44 AM44.6 °F37.4 °F76 %30.04 in8.0 miNE (50°)3.5 mph0.00 inRainLight Rain
11:51 AM44.6 °F35.6 °F71 %30.04 in10.0 miEast (80°)3.5 mph0.00 inRainLight Rain
11:53 AM44.1 °F36.0 °F73 %29.98 in10.0 miCalm0.00 inRainLight Rain
12:01 PM44.6 °F35.6 °F71 %30.04 in10.0 miCalmOvercast
12:10 PM44.6 °F35.6 °F71 %30.03 in10.0 miCalmOvercast
12:53 PM45.0 °F37.0 °F74 %29.97 in10.0 miCalm0.00 inRainLight Rain
1:53 PM46.0 °F37.9 °F73 %29.97 in10.0 miCalm0.00 inOvercast
2:53 PM48.0 °F36.0 °F63 %29.95 in10.0 miCalmOvercast
3:18 PM48.2 °F35.6 °F62 %30.03 in10.0 miCalmOvercast
3:43 PM46.4 °F35.6 °F66 %30.03 in10.0 miNorth (360°)3.5 mph0.00 inRainLight Rain
3:53 PM46.9 °F37.0 °F68 %29.96 in10.0 miCalm0.00 inOvercast
4:26 PM46.4 °F35.6 °F66 %30.02 in10.0 miCalmOvercast
4:53 PM46.9 °F37.9 °F71 %29.96 in10.0 miSSE (160°)5.8 mphOvercast
5:25 PM44.6 °F37.4 °F76 %30.03 in6.0 miSouth (170°)6.9 mph0.01 inRainLight Rain
5:53 PM44.1 °F39.0 °F82 %29.98 in7.0 miSSW (210°)4.6 mph0.04 inRainLight Rain
6:25 PM44.6 °F37.4 °F76 %30.04 in9.0 miSouth (180°)6.9 mph0.01 inRainLight Rain
6:53 PM44.1 °F37.9 °F79 %29.98 in10.0 miSouth (190°)4.6 mph0.01 inOvercast
7:53 PM43.0 °F37.9 °F82 %29.99 in9.0 miCalm0.00 inRainLight Rain
8:14 PM42.8 °F37.4 °F81 %30.05 in5.0 miCalm0.01 inRainLight Rain
8:31 PM42.8 °F37.4 °F81 %30.05 in6.0 miCalm0.02 inRainLight Rain
8:40 PM42.8 °F37.4 °F81 %30.05 in6.0 miCalm0.03 inRainLight Rain
8:53 PM43.0 °F37.9 °F82 %29.99 in5.0 miCalm0.03 inRainLight Rain
9:53 PM42.1 °F37.0 °F82 %30.02 in6.0 miCalm0.03 inRainLight Rain
10:53 PM42.1 °F37.0 °F82 %30.02 in9.0 miSSE (160°)3.5 mph0.02 inRainLight Rain
11:53 PM41.0 °F37.0 °F86 %30.03 in6.0 miCalm0.04 inRainLight Rain
Hourly data recorded from KTVL, located 0.96 miles away from South Lake Tahoe, California







STORIES FROM OUR PARTNERS